Terug naar catalogus

STARLINK-31004

ActiefCommunicatieVLEO
NORAD 58528·PAYLOAD·🇺🇸 United States

Gelanceerd Dec 7, 2023 vanaf Cape Canaveral Space Force Station

Loading…

Volgende Passages (komende 24 uur)

TLE

VersSource: CelesTrak SupGP

Epoch: Sep 15, 2026, 02:55 UTC

1 58528C 23191W   26258.12201389  .00045836  00000+0  16604-2 0  2585
2 58528  43.0022 113.4990 0001487 277.7003  93.9317 15.27552324    13

Volg STARLINK-31004 in realtime met AllMySat

Download on the App Store